sat.trackr.live / text

‹ back to catalog

STARLINK-11624 [DTC]

NORAD 63105 · 2025-039B

PAYLOAD ACTIVE UNKNOWN

§ Identity

Operator
Country
US
Launch date
2025-02-27
Launch site
AFETR
Launch vehicle
Mass (kg)
RCS (m²)

Purposes: comms

External: N2YO · Heavens-Above · Gunter

§ Orbital elements

Epoch: 2026-05-25T00:06:50.552064Z

Period
91.66 min
Inclination
42.9977°
Eccentricity
0.0000640
Mean motion
15.70938517 rev/d
Perigee alt
355.8 km
Apogee alt
356.6 km
Semi-major
6,734.4 km
B*
1.1383e-3
RAAN
137.2231°
Arg perigee
241.7417°
Mean anomaly
118.3386°
Rev number
7,161

§ Raw data

STARLINK-11624 [DTC]1 63105U 25039B   26145.00475176  .00148868  00000+0  11383-2 0  99942 63105  42.9977 137.2231 0000640 241.7417 118.3386 15.70938517 71611

JSON: /api/v1/satellites/63105 · /tle

For live sub-satellite position, see the globe view (requires WebGL).

§ Visibility from observer

Set your observer location to see the next 7 days of passes ≥ 10°. The values pass through the URL so the page stays shareable.

No JS? Fill the form by hand. The geolocation button needs JavaScript.